Location: Bacharowice
(49.9333°N, 19.5833°E)
Time: 23:25:27
(UTC+00:00)

Cosmos 2278 Rocket - Pass Details

Date: 11 May 2021
Orbit: 841 x 845 km, 71.0° (Epoch: 21 June)

Event Time Altitude Azimuth Distance (km) Brightness Sun altitude
Rises 20:18:26 0° 207° (SSW) 3,385 5.1 -15.3°
Reaches altitude 10° 20:20:52 10° 208° (SSW) 2,454 4.3 -15.5°
Maximum altitude 20:26:31 89° 297° (WNW) 849 2.2 -16.0°
Drops below altitude 10° 20:32:12 10° 29° (NNE) 2,470 5.0 -16.5°
Sets 20:34:39 0° 30° (NNE) 3,409 5.8 -16.7°
